Year,Month,Day,Hour,Minute,Value (Times are PST for windspeed in km/hr)
2013,08,31,00,00,3.30
2013,08,31,00,01,3.80
2013,08,31,00,02,1.70
2013,08,31,00,03,0.70
2013,08,31,00,04,1.60
2013,08,31,00,05,1.00
2013,08,31,00,06,1.40
2013,08,31,00,07,1.60
2013,08,31,00,08,2.00
2013,08,31,00,09,1.10
2013,08,31,00,10,1.90
2013,08,31,00,11,1.60
2013,08,31,00,12,1.90
2013,08,31,00,13,1.50
2013,08,31,00,14,0.40
2013,08,31,00,15,0.00
2013,08,31,00,16,0.10
2013,08,31,00,17,1.80
2013,08,31,00,18,1.40
2013,08,31,00,19,2.30
2013,08,31,00,20,4.10
2013,08,31,00,21,3.60
2013,08,31,00,22,3.40
2013,08,31,00,23,3.70
2013,08,31,00,24,3.70
2013,08,31,00,25,4.00
2013,08,31,00,26,3.90
2013,08,31,00,27,3.80
2013,08,31,00,28,3.10
2013,08,31,00,29,2.30
2013,08,31,00,30,2.20
2013,08,31,00,31,2.10
2013,08,31,00,32,2.60
2013,08,31,00,33,3.70
2013,08,31,00,34,3.10
2013,08,31,00,35,2.30
2013,08,31,00,36,1.60
2013,08,31,00,37,2.00
2013,08,31,00,38,2.40
2013,08,31,00,39,3.00
2013,08,31,00,40,2.90
2013,08,31,00,41,3.90
2013,08,31,00,42,3.70
2013,08,31,00,43,3.60
2013,08,31,00,44,3.90
2013,08,31,00,45,2.20
2013,08,31,00,46,2.70
2013,08,31,00,47,2.90
2013,08,31,00,48,3.50
2013,08,31,00,49,2.20
2013,08,31,00,50,1.10
2013,08,31,00,51,0.20
2013,08,31,00,52,0.10
2013,08,31,00,53,0.00
2013,08,31,00,54,0.20
2013,08,31,00,55,2.40
2013,08,31,00,56,3.10
2013,08,31,00,57,2.80
2013,08,31,00,58,3.10
2013,08,31,00,59,3.60
2013,08,31,01,00,3.20
2013,08,31,01,01,4.10
2013,08,31,01,02,4.20
2013,08,31,01,03,4.50
2013,08,31,01,04,3.60
2013,08,31,01,05,3.20
2013,08,31,01,06,3.20
2013,08,31,01,07,2.90
2013,08,31,01,08,2.20
2013,08,31,01,09,3.00
2013,08,31,01,10,2.50
2013,08,31,01,11,2.60
2013,08,31,01,12,3.00
2013,08,31,01,13,2.50
2013,08,31,01,14,2.00
2013,08,31,01,15,1.40
2013,08,31,01,16,1.10
2013,08,31,01,17,1.90
2013,08,31,01,18,1.10
2013,08,31,01,19,1.80
2013,08,31,01,20,2.10
2013,08,31,01,21,1.20
2013,08,31,01,22,1.20
2013,08,31,01,23,1.10
2013,08,31,01,24,1.30
2013,08,31,01,25,0.80
2013,08,31,01,26,0.40
2013,08,31,01,27,1.10
2013,08,31,01,28,1.20
2013,08,31,01,29,1.80
2013,08,31,01,30,0.20
2013,08,31,01,31,0.00
2013,08,31,01,32,0.00
2013,08,31,01,33,0.00
2013,08,31,01,34,0.00
2013,08,31,01,35,0.00
2013,08,31,01,36,0.00
2013,08,31,01,37,0.00
2013,08,31,01,38,0.00
2013,08,31,01,39,0.00
2013,08,31,01,40,0.00
2013,08,31,01,41,0.00
2013,08,31,01,42,0.00
2013,08,31,01,43,1.10
2013,08,31,01,44,2.50
2013,08,31,01,45,2.90
2013,08,31,01,46,2.30
2013,08,31,01,47,3.50
2013,08,31,01,48,3.10
2013,08,31,01,49,3.30
2013,08,31,01,50,3.70
2013,08,31,01,51,3.50
2013,08,31,01,52,3.40
2013,08,31,01,53,3.90
2013,08,31,01,54,5.30
2013,08,31,01,55,3.00
2013,08,31,01,56,3.00
2013,08,31,01,57,3.90
2013,08,31,01,58,3.10
2013,08,31,01,59,4.30
2013,08,31,02,00,4.30
2013,08,31,02,01,2.60
2013,08,31,02,02,3.30
2013,08,31,02,03,2.40
2013,08,31,02,04,3.10
2013,08,31,02,05,3.20
2013,08,31,02,06,3.40
2013,08,31,02,07,2.70
2013,08,31,02,08,2.90
2013,08,31,02,09,4.00
2013,08,31,02,10,4.30
2013,08,31,02,11,3.60
2013,08,31,02,12,1.10
2013,08,31,02,13,3.60
2013,08,31,02,14,1.90
2013,08,31,02,15,1.50
2013,08,31,02,16,1.90
2013,08,31,02,17,2.50
2013,08,31,02,18,1.70
2013,08,31,02,19,2.40
2013,08,31,02,20,1.60
2013,08,31,02,21,1.20
2013,08,31,02,22,2.30
2013,08,31,02,23,2.00
2013,08,31,02,24,1.40
2013,08,31,02,25,2.20
2013,08,31,02,26,1.70
2013,08,31,02,27,1.10
2013,08,31,02,28,2.50
2013,08,31,02,29,0.50
2013,08,31,02,30,0.00
2013,08,31,02,31,0.00
2013,08,31,02,32,0.00
2013,08,31,02,33,0.00
2013,08,31,02,34,0.00
2013,08,31,02,35,0.00
2013,08,31,02,36,0.00
2013,08,31,02,37,0.00
2013,08,31,02,38,0.00
2013,08,31,02,39,0.00
2013,08,31,02,40,0.00
2013,08,31,02,41,0.00
2013,08,31,02,42,0.00
2013,08,31,02,43,0.00
2013,08,31,02,44,0.00
2013,08,31,02,45,0.00
2013,08,31,02,46,0.00
2013,08,31,02,47,0.00
2013,08,31,02,48,0.00
2013,08,31,02,49,0.00
2013,08,31,02,50,0.00
2013,08,31,02,51,0.00
2013,08,31,02,52,0.10
2013,08,31,02,53,0.00
2013,08,31,02,54,0.00
2013,08,31,02,55,0.80
2013,08,31,02,56,0.30
2013,08,31,02,57,0.00
2013,08,31,02,58,0.00
2013,08,31,02,59,0.00
2013,08,31,03,00,1.50
2013,08,31,03,01,3.00
2013,08,31,03,02,2.50
2013,08,31,03,03,1.70
2013,08,31,03,04,0.70
2013,08,31,03,05,0.00
2013,08,31,03,06,0.00
2013,08,31,03,07,0.10
2013,08,31,03,08,0.00
2013,08,31,03,09,0.30
2013,08,31,03,10,0.00
2013,08,31,03,11,1.00
2013,08,31,03,12,0.60
2013,08,31,03,13,0.00
2013,08,31,03,14,0.00
2013,08,31,03,15,0.00
2013,08,31,03,16,0.00
2013,08,31,03,17,0.60
2013,08,31,03,18,0.00
2013,08,31,03,19,0.00
2013,08,31,03,20,0.00
2013,08,31,03,21,0.00
2013,08,31,03,22,0.00
2013,08,31,03,23,0.20
2013,08,31,03,24,1.60
2013,08,31,03,25,0.70
2013,08,31,03,26,0.40
2013,08,31,03,27,0.00
2013,08,31,03,28,0.00
2013,08,31,03,29,0.00
2013,08,31,03,30,0.00
2013,08,31,03,31,1.10
2013,08,31,03,32,0.40
2013,08,31,03,33,0.40
2013,08,31,03,34,1.30
2013,08,31,03,35,0.00
2013,08,31,03,36,0.00
2013,08,31,03,37,0.00
2013,08,31,03,38,0.80
2013,08,31,03,39,0.30
2013,08,31,03,40,0.00
2013,08,31,03,41,0.00
2013,08,31,03,42,0.50
2013,08,31,03,43,2.20
2013,08,31,03,44,2.20
2013,08,31,03,45,2.50
2013,08,31,03,46,2.30
2013,08,31,03,47,1.90
2013,08,31,03,48,1.60
2013,08,31,03,49,1.80
2013,08,31,03,50,1.30
2013,08,31,03,51,1.20
2013,08,31,03,52,1.80
2013,08,31,03,53,2.10
2013,08,31,03,54,2.20
2013,08,31,03,55,2.30
2013,08,31,03,56,3.10
2013,08,31,03,57,3.00
2013,08,31,03,58,2.10
2013,08,31,03,59,1.80
2013,08,31,04,00,1.10
2013,08,31,04,01,2.40
2013,08,31,04,02,2.50
2013,08,31,04,03,3.40
2013,08,31,04,04,2.30
2013,08,31,04,05,1.90
2013,08,31,04,06,1.40
2013,08,31,04,07,1.30
2013,08,31,04,08,1.20
2013,08,31,04,09,1.50
2013,08,31,04,10,0.10
2013,08,31,04,11,0.00
2013,08,31,04,12,0.10
2013,08,31,04,13,0.00
2013,08,31,04,14,0.30
2013,08,31,04,15,0.20
2013,08,31,04,16,1.20
2013,08,31,04,17,0.30
2013,08,31,04,18,0.20
2013,08,31,04,19,0.50
2013,08,31,04,20,0.20
2013,08,31,04,21,0.50
2013,08,31,04,22,0.00
2013,08,31,04,23,0.40
2013,08,31,04,24,0.30
2013,08,31,04,25,0.00
2013,08,31,04,26,0.00
2013,08,31,04,27,0.00
2013,08,31,04,28,0.00
2013,08,31,04,29,0.00
2013,08,31,04,30,0.00
2013,08,31,04,31,0.00
2013,08,31,04,32,0.00
2013,08,31,04,33,0.30
2013,08,31,04,34,0.20
2013,08,31,04,35,0.00
2013,08,31,04,36,0.80
2013,08,31,04,37,1.60
2013,08,31,04,38,0.20
2013,08,31,04,39,3.00
2013,08,31,04,40,2.30
2013,08,31,04,41,2.40
2013,08,31,04,42,1.40
2013,08,31,04,43,0.10
2013,08,31,04,44,0.00
2013,08,31,04,45,0.20
2013,08,31,04,46,0.30
2013,08,31,04,47,1.40
2013,08,31,04,48,1.40
2013,08,31,04,49,1.30
2013,08,31,04,50,0.90
2013,08,31,04,51,0.00
2013,08,31,04,52,0.60
2013,08,31,04,53,1.60
2013,08,31,04,54,1.10
2013,08,31,04,55,0.10
2013,08,31,04,56,0.20
2013,08,31,04,57,0.00
2013,08,31,04,58,0.00
2013,08,31,04,59,0.00
2013,08,31,05,00,0.00
2013,08,31,05,01,0.00
2013,08,31,05,02,0.20
2013,08,31,05,03,0.60
2013,08,31,05,04,0.60
2013,08,31,05,05,3.10
2013,08,31,05,06,2.80
2013,08,31,05,07,0.40
2013,08,31,05,08,1.60
2013,08,31,05,09,4.40
2013,08,31,05,10,0.80
2013,08,31,05,11,2.00
2013,08,31,05,12,0.60
2013,08,31,05,13,0.60
2013,08,31,05,14,1.10
2013,08,31,05,15,0.00
2013,08,31,05,16,0.50
2013,08,31,05,17,1.50
2013,08,31,05,18,5.40
2013,08,31,05,19,5.10
2013,08,31,05,20,4.10
2013,08,31,05,21,4.70
2013,08,31,05,22,2.30
2013,08,31,05,23,2.70
2013,08,31,05,24,1.70
2013,08,31,05,25,2.80
2013,08,31,05,26,3.50
2013,08,31,05,27,3.30
2013,08,31,05,28,2.70
2013,08,31,05,29,5.00
2013,08,31,05,30,3.90
2013,08,31,05,31,3.40
2013,08,31,05,32,2.50
2013,08,31,05,33,2.20
2013,08,31,05,34,2.00
2013,08,31,05,35,4.60
2013,08,31,05,36,5.00
2013,08,31,05,37,4.50
2013,08,31,05,38,3.10
2013,08,31,05,39,4.10
2013,08,31,05,40,4.20
2013,08,31,05,41,2.50
2013,08,31,05,42,3.60
2013,08,31,05,43,3.00
2013,08,31,05,44,3.30
2013,08,31,05,45,1.60
2013,08,31,05,46,3.00
2013,08,31,05,47,3.40
2013,08,31,05,48,4.00
2013,08,31,05,49,1.50
2013,08,31,05,50,2.40
2013,08,31,05,51,2.20
2013,08,31,05,52,2.40
2013,08,31,05,53,3.10
2013,08,31,05,54,2.60
2013,08,31,05,55,2.20
2013,08,31,05,56,3.00
2013,08,31,05,57,3.00
2013,08,31,05,58,3.00
2013,08,31,05,59,3.10
2013,08,31,06,00,3.10
2013,08,31,06,01,4.40
2013,08,31,06,02,3.30
2013,08,31,06,03,3.90
2013,08,31,06,04,3.30
2013,08,31,06,05,2.20
2013,08,31,06,06,2.50
2013,08,31,06,07,2.30
2013,08,31,06,08,4.60
2013,08,31,06,09,3.40
2013,08,31,06,10,2.60
2013,08,31,06,11,2.30
2013,08,31,06,12,3.70
2013,08,31,06,13,3.80
2013,08,31,06,14,4.70
2013,08,31,06,15,4.70
2013,08,31,06,16,1.60
2013,08,31,06,17,4.60
2013,08,31,06,18,4.60
2013,08,31,06,19,4.70
2013,08,31,06,20,4.80
2013,08,31,06,21,6.10
2013,08,31,06,22,5.60
2013,08,31,06,23,6.00
2013,08,31,06,24,3.00
2013,08,31,06,25,3.70
2013,08,31,06,26,3.00
2013,08,31,06,27,3.10
2013,08,31,06,28,3.40
2013,08,31,06,29,5.00
2013,08,31,06,30,3.10
2013,08,31,06,31,3.60
2013,08,31,06,32,3.70
2013,08,31,06,33,6.30
2013,08,31,06,34,5.10
2013,08,31,06,35,4.60
2013,08,31,06,36,5.30
2013,08,31,06,37,4.00
2013,08,31,06,38,3.80
2013,08,31,06,39,5.70
2013,08,31,06,40,5.90
2013,08,31,06,41,4.90
2013,08,31,06,42,4.20
2013,08,31,06,43,3.50
2013,08,31,06,44,4.90
2013,08,31,06,45,5.00
2013,08,31,06,46,5.60
2013,08,31,06,47,6.40
2013,08,31,06,48,3.50
2013,08,31,06,49,6.00
2013,08,31,06,50,5.00
2013,08,31,06,51,6.00
2013,08,31,06,52,3.30
2013,08,31,06,53,5.60
2013,08,31,06,54,5.90
2013,08,31,06,55,6.30
2013,08,31,06,56,6.10
2013,08,31,06,57,6.50
2013,08,31,06,58,5.40
2013,08,31,06,59,4.70
2013,08,31,07,00,5.10
2013,08,31,07,01,5.40
2013,08,31,07,02,4.70
2013,08,31,07,03,5.10
2013,08,31,07,04,6.40
2013,08,31,07,05,5.40
2013,08,31,07,06,5.60
2013,08,31,07,07,5.30
2013,08,31,07,08,4.30
2013,08,31,07,09,5.30
2013,08,31,07,10,4.30
2013,08,31,07,11,5.30
2013,08,31,07,12,2.00
2013,08,31,07,13,5.40
2013,08,31,07,14,5.30
2013,08,31,07,15,5.10
2013,08,31,07,16,3.90
2013,08,31,07,17,5.10
2013,08,31,07,18,5.90
2013,08,31,07,19,4.60
2013,08,31,07,20,5.90
2013,08,31,07,21,5.80
2013,08,31,07,22,7.00
2013,08,31,07,23,3.50
2013,08,31,07,24,5.00
2013,08,31,07,25,4.50
2013,08,31,07,26,3.30
2013,08,31,07,27,4.60
2013,08,31,07,28,4.40
2013,08,31,07,29,2.30
2013,08,31,07,30,4.10
2013,08,31,07,31,4.20
2013,08,31,07,32,2.40
2013,08,31,07,33,5.00
2013,08,31,07,34,4.90
2013,08,31,07,35,5.60
2013,08,31,07,36,5.30
2013,08,31,07,37,3.90
2013,08,31,07,38,6.00
2013,08,31,07,39,5.00
2013,08,31,07,40,4.90
2013,08,31,07,41,5.50
2013,08,31,07,42,4.20
2013,08,31,07,43,4.70
2013,08,31,07,44,4.30
2013,08,31,07,45,4.10
2013,08,31,07,46,2.10
2013,08,31,07,47,3.90
2013,08,31,07,48,2.90
2013,08,31,07,49,4.20
2013,08,31,07,50,4.30
2013,08,31,07,51,4.20
2013,08,31,07,52,4.30
2013,08,31,07,53,5.00
2013,08,31,07,54,4.90
2013,08,31,07,55,5.60
2013,08,31,07,56,3.70
2013,08,31,07,57,5.70
2013,08,31,07,58,6.10
2013,08,31,07,59,6.20
2013,08,31,08,00,6.00
2013,08,31,08,01,5.80
2013,08,31,08,02,5.50
2013,08,31,08,03,4.70
2013,08,31,08,04,4.50
2013,08,31,08,05,5.20
2013,08,31,08,06,4.20
2013,08,31,08,07,4.80
2013,08,31,08,08,5.00
2013,08,31,08,09,5.10
2013,08,31,08,10,4.60
2013,08,31,08,11,3.00
2013,08,31,08,12,3.40
2013,08,31,08,13,3.20
2013,08,31,08,14,2.90
2013,08,31,08,15,3.00
2013,08,31,08,16,1.80
2013,08,31,08,17,2.20
2013,08,31,08,18,2.70
2013,08,31,08,19,3.30
2013,08,31,08,20,4.70
2013,08,31,08,21,4.30
2013,08,31,08,22,1.90
2013,08,31,08,23,3.90
2013,08,31,08,24,4.50
2013,08,31,08,25,2.60
2013,08,31,08,26,3.80
2013,08,31,08,27,3.00
2013,08,31,08,28,3.00
2013,08,31,08,29,3.30
2013,08,31,08,30,2.60
2013,08,31,08,31,0.60
2013,08,31,08,32,1.20
2013,08,31,08,33,0.20
2013,08,31,08,34,1.30
2013,08,31,08,35,1.70
2013,08,31,08,36,2.70
2013,08,31,08,37,2.70
2013,08,31,08,38,2.40
2013,08,31,08,39,2.10
2013,08,31,08,40,2.00
2013,08,31,08,41,1.90
2013,08,31,08,42,0.60
2013,08,31,08,43,3.20
2013,08,31,08,44,3.50
2013,08,31,08,45,1.60
2013,08,31,08,46,1.20
2013,08,31,08,47,1.30
2013,08,31,08,48,0.10
2013,08,31,08,49,0.30
2013,08,31,08,50,0.00
2013,08,31,08,51,1.90
2013,08,31,08,52,3.40
2013,08,31,08,53,4.10
2013,08,31,08,54,3.30
2013,08,31,08,55,2.50
2013,08,31,08,56,1.30
2013,08,31,08,57,1.80
2013,08,31,08,58,3.40
2013,08,31,08,59,4.30
2013,08,31,09,00,4.50
2013,08,31,09,01,3.40
2013,08,31,09,02,1.90
2013,08,31,09,03,5.60
2013,08,31,09,04,4.30
2013,08,31,09,05,2.70
2013,08,31,09,06,3.60
2013,08,31,09,07,3.00
2013,08,31,09,08,5.70
2013,08,31,09,09,4.50
2013,08,31,09,10,5.10
2013,08,31,09,11,3.90
2013,08,31,09,12,5.60
2013,08,31,09,13,5.00
2013,08,31,09,14,6.40
2013,08,31,09,15,4.10
2013,08,31,09,16,2.20
2013,08,31,09,17,2.70
2013,08,31,09,18,2.00
2013,08,31,09,19,1.60
2013,08,31,09,20,2.80
2013,08,31,09,21,3.10
2013,08,31,09,22,2.80
2013,08,31,09,23,3.50
2013,08,31,09,24,2.00
2013,08,31,09,25,3.70
2013,08,31,09,26,2.40
2013,08,31,09,27,3.20
2013,08,31,09,28,3.20
2013,08,31,09,29,5.70
2013,08,31,09,30,4.80
2013,08,31,09,31,4.40
2013,08,31,09,32,3.50
2013,08,31,09,33,0.40
2013,08,31,09,34,3.00
2013,08,31,09,35,2.80
2013,08,31,09,36,2.50
2013,08,31,09,37,3.30
2013,08,31,09,38,3.10
2013,08,31,09,39,3.90
2013,08,31,09,40,2.80
2013,08,31,09,41,4.40
2013,08,31,09,42,1.60
2013,08,31,09,43,2.40
2013,08,31,09,44,2.90
2013,08,31,09,45,2.90
2013,08,31,09,46,3.10
2013,08,31,09,47,4.60
2013,08,31,09,48,3.00
2013,08,31,09,49,1.80
2013,08,31,09,50,3.90
2013,08,31,09,51,4.70
2013,08,31,09,52,2.30
2013,08,31,09,53,1.40
2013,08,31,09,54,2.00
2013,08,31,09,55,2.30
2013,08,31,09,56,2.60
2013,08,31,09,57,4.00
2013,08,31,09,58,4.90
2013,08,31,09,59,3.90
2013,08,31,10,00,2.60
2013,08,31,10,01,3.70
2013,08,31,10,02,4.90
2013,08,31,10,03,4.20
2013,08,31,10,04,3.50
2013,08,31,10,05,1.90
2013,08,31,10,06,3.90
2013,08,31,10,07,2.70
2013,08,31,10,08,4.20
2013,08,31,10,09,2.30
2013,08,31,10,10,2.70
2013,08,31,10,11,3.20
2013,08,31,10,12,3.60
2013,08,31,10,13,3.00
2013,08,31,10,14,3.90
2013,08,31,10,15,4.80
2013,08,31,10,16,3.10
2013,08,31,10,17,2.20
2013,08,31,10,18,2.40
2013,08,31,10,19,3.00
2013,08,31,10,20,3.00
2013,08,31,10,21,2.30
2013,08,31,10,22,2.00
2013,08,31,10,23,0.90
2013,08,31,10,24,2.40
2013,08,31,10,25,2.50
2013,08,31,10,26,3.40
2013,08,31,10,27,3.30
2013,08,31,10,28,5.60
2013,08,31,10,29,4.40
2013,08,31,10,30,5.80
2013,08,31,10,31,4.10
2013,08,31,10,32,3.50
2013,08,31,10,33,4.10
2013,08,31,10,34,4.40
2013,08,31,10,35,4.70
2013,08,31,10,36,4.00
2013,08,31,10,37,2.80
2013,08,31,10,38,2.20
2013,08,31,10,39,4.10
2013,08,31,10,40,2.10
2013,08,31,10,41,2.00
2013,08,31,10,42,1.10
2013,08,31,10,43,2.90
2013,08,31,10,44,2.80
2013,08,31,10,45,2.50
2013,08,31,10,46,1.50
2013,08,31,10,47,2.30
2013,08,31,10,48,1.50
2013,08,31,10,49,1.40
2013,08,31,10,50,3.50
2013,08,31,10,51,2.00
2013,08,31,10,52,3.70
2013,08,31,10,53,3.30
2013,08,31,10,54,3.30
2013,08,31,10,55,4.60
2013,08,31,10,56,1.40
2013,08,31,10,57,1.90
2013,08,31,10,58,1.00
2013,08,31,10,59,1.40
2013,08,31,11,00,4.20
2013,08,31,11,01,3.40
2013,08,31,11,02,4.20
2013,08,31,11,03,4.80
2013,08,31,11,04,4.50
2013,08,31,11,05,2.90
2013,08,31,11,06,3.10
2013,08,31,11,07,1.60
2013,08,31,11,08,1.70
2013,08,31,11,09,1.00
2013,08,31,11,10,1.30
2013,08,31,11,11,0.90
2013,08,31,11,12,3.80
2013,08,31,11,13,1.40
2013,08,31,11,14,1.30
2013,08,31,11,15,0.20
2013,08,31,11,16,1.30
2013,08,31,11,17,2.00
2013,08,31,11,18,3.40
2013,08,31,11,19,1.70
2013,08,31,11,20,1.30
2013,08,31,11,21,0.10
2013,08,31,11,22,0.50
2013,08,31,11,23,2.30
2013,08,31,11,24,6.00
2013,08,31,11,25,3.60
2013,08,31,11,26,3.50
2013,08,31,11,27,4.30
2013,08,31,11,28,3.50
2013,08,31,11,29,4.80
2013,08,31,11,30,3.90
2013,08,31,11,31,3.70
2013,08,31,11,32,4.30
2013,08,31,11,33,2.60
2013,08,31,11,34,2.90
2013,08,31,11,35,0.60
2013,08,31,11,36,0.00
2013,08,31,11,37,0.20
2013,08,31,11,38,2.20
2013,08,31,11,39,6.80
2013,08,31,11,40,5.70
2013,08,31,11,41,5.10
2013,08,31,11,42,2.60
2013,08,31,11,43,4.80
2013,08,31,11,44,4.70
2013,08,31,11,45,3.80
2013,08,31,11,46,3.10
2013,08,31,11,47,3.90
2013,08,31,11,48,2.70
2013,08,31,11,49,0.60
2013,08,31,11,50,1.80
2013,08,31,11,51,1.50
2013,08,31,11,52,4.10
2013,08,31,11,53,1.70
2013,08,31,11,54,2.00
2013,08,31,11,55,0.80
2013,08,31,11,56,2.20
2013,08,31,11,57,3.20
2013,08,31,11,58,1.40
2013,08,31,11,59,5.40
2013,08,31,12,00,6.80
2013,08,31,12,01,5.40
2013,08,31,12,02,5.50
2013,08,31,12,03,5.90
2013,08,31,12,04,5.20
2013,08,31,12,05,3.30
2013,08,31,12,06,3.90
2013,08,31,12,07,3.70
2013,08,31,12,08,2.80
2013,08,31,12,09,2.00
2013,08,31,12,10,0.20
2013,08,31,12,11,1.80
2013,08,31,12,12,2.50
2013,08,31,12,13,4.30
2013,08,31,12,14,6.80
2013,08,31,12,15,6.80
2013,08,31,12,16,4.70
2013,08,31,12,17,5.20
2013,08,31,12,18,6.80
2013,08,31,12,19,2.10
2013,08,31,12,20,3.90
2013,08,31,12,21,3.50
2013,08,31,12,22,1.00
2013,08,31,12,23,5.00
2013,08,31,12,24,5.20
2013,08,31,12,25,5.30
2013,08,31,12,26,6.90
2013,08,31,12,27,5.50
2013,08,31,12,28,8.10
2013,08,31,12,29,6.80
2013,08,31,12,30,6.80
2013,08,31,12,31,8.30
2013,08,31,12,32,6.40
2013,08,31,12,33,9.70
2013,08,31,12,34,9.70
2013,08,31,12,35,6.30
2013,08,31,12,36,6.50
2013,08,31,12,37,7.80
2013,08,31,12,38,6.60
2013,08,31,12,39,3.50
2013,08,31,12,40,5.90
2013,08,31,12,41,5.90
2013,08,31,12,42,6.80
2013,08,31,12,43,4.80
2013,08,31,12,44,5.70
2013,08,31,12,45,3.10
2013,08,31,12,46,7.40
2013,08,31,12,47,6.40
2013,08,31,12,48,5.80
2013,08,31,12,49,7.90
2013,08,31,12,50,6.00
2013,08,31,12,51,6.10
2013,08,31,12,52,8.70
2013,08,31,12,53,7.10
2013,08,31,12,54,9.40
2013,08,31,12,55,7.40
2013,08,31,12,56,11.30
2013,08,31,12,57,9.70
2013,08,31,12,58,7.70
2013,08,31,12,59,8.60
2013,08,31,13,00,8.00
2013,08,31,13,01,5.60
2013,08,31,13,02,8.80
2013,08,31,13,03,5.70
2013,08,31,13,04,5.50
2013,08,31,13,05,3.20
2013,08,31,13,06,5.70
2013,08,31,13,07,6.70
2013,08,31,13,08,6.00
2013,08,31,13,09,2.80
2013,08,31,13,10,8.20
2013,08,31,13,11,6.80
2013,08,31,13,12,7.00
2013,08,31,13,13,6.10
2013,08,31,13,14,7.20
2013,08,31,13,15,6.40
2013,08,31,13,16,7.30
2013,08,31,13,17,4.10
2013,08,31,13,18,6.10
2013,08,31,13,19,8.50
2013,08,31,13,20,5.10
2013,08,31,13,21,8.80
2013,08,31,13,22,6.20
2013,08,31,13,23,4.00
2013,08,31,13,24,3.50
2013,08,31,13,25,6.40
2013,08,31,13,26,6.00
2013,08,31,13,27,6.00
2013,08,31,13,28,2.10
2013,08,31,13,29,4.90
2013,08,31,13,30,8.40
2013,08,31,13,31,9.90
2013,08,31,13,32,7.40
2013,08,31,13,33,5.90
2013,08,31,13,34,5.50
2013,08,31,13,35,6.70
2013,08,31,13,36,3.00
2013,08,31,13,37,2.60
2013,08,31,13,38,5.00
2013,08,31,13,39,3.90
2013,08,31,13,40,4.60
2013,08,31,13,41,6.50
2013,08,31,13,42,5.60
2013,08,31,13,43,5.60
2013,08,31,13,44,4.70
2013,08,31,13,45,4.50
2013,08,31,13,46,4.70
2013,08,31,13,47,3.00
2013,08,31,13,48,4.90
2013,08,31,13,49,5.10
2013,08,31,13,50,4.10
2013,08,31,13,51,4.30
2013,08,31,13,52,3.50
2013,08,31,13,53,3.40
2013,08,31,13,54,3.10
2013,08,31,13,55,6.00
2013,08,31,13,56,3.80
2013,08,31,13,57,4.70
2013,08,31,13,58,7.80
2013,08,31,13,59,7.10
2013,08,31,14,00,2.50
2013,08,31,14,01,3.30
2013,08,31,14,02,5.80
2013,08,31,14,03,5.60
2013,08,31,14,04,8.50
2013,08,31,14,05,8.90
2013,08,31,14,06,8.00
2013,08,31,14,07,6.50
2013,08,31,14,08,5.10
2013,08,31,14,09,1.30
2013,08,31,14,10,5.40
2013,08,31,14,11,6.30
2013,08,31,14,12,5.10
2013,08,31,14,13,6.20
2013,08,31,14,14,3.20
2013,08,31,14,15,6.00
2013,08,31,14,16,3.90
2013,08,31,14,17,4.60
2013,08,31,14,18,5.50
2013,08,31,14,19,4.00
2013,08,31,14,20,4.10
2013,08,31,14,21,6.10
2013,08,31,14,22,7.70
2013,08,31,14,23,6.00
2013,08,31,14,24,2.30
2013,08,31,14,25,7.60
2013,08,31,14,26,5.50
2013,08,31,14,27,4.10
2013,08,31,14,28,5.70
2013,08,31,14,29,7.20
2013,08,31,14,30,3.30
2013,08,31,14,31,5.10
2013,08,31,14,32,4.70
2013,08,31,14,33,2.80
2013,08,31,14,34,6.70
2013,08,31,14,35,7.70
2013,08,31,14,36,7.20
2013,08,31,14,37,5.00
2013,08,31,14,38,6.20
2013,08,31,14,39,4.60
2013,08,31,14,40,7.20
2013,08,31,14,41,6.50
2013,08,31,14,42,3.50
2013,08,31,14,43,8.10
2013,08,31,14,44,5.30
2013,08,31,14,45,4.60
2013,08,31,14,46,2.40
2013,08,31,14,47,5.20
2013,08,31,14,48,3.20
2013,08,31,14,49,3.40
2013,08,31,14,50,6.10
2013,08,31,14,51,4.00
2013,08,31,14,52,3.50
2013,08,31,14,53,6.00
2013,08,31,14,54,5.00
2013,08,31,14,55,3.40
2013,08,31,14,56,4.30
2013,08,31,14,57,4.20
2013,08,31,14,58,6.10
2013,08,31,14,59,5.40
2013,08,31,15,00,5.00
2013,08,31,15,01,5.00
2013,08,31,15,02,6.40
2013,08,31,15,03,5.10
2013,08,31,15,04,6.80
2013,08,31,15,05,4.20
2013,08,31,15,06,8.50
2013,08,31,15,07,7.20
2013,08,31,15,08,7.20
2013,08,31,15,09,6.10
2013,08,31,15,10,6.20
2013,08,31,15,11,7.20
2013,08,31,15,12,10.00
2013,08,31,15,13,5.00
2013,08,31,15,14,3.10
2013,08,31,15,15,7.00
2013,08,31,15,16,3.90
2013,08,31,15,17,5.60
2013,08,31,15,18,6.10
2013,08,31,15,19,7.40
2013,08,31,15,20,5.70
2013,08,31,15,21,5.60
2013,08,31,15,22,7.60
2013,08,31,15,23,6.50
2013,08,31,15,24,6.00
2013,08,31,15,25,3.90
2013,08,31,15,26,6.40
2013,08,31,15,27,6.10
2013,08,31,15,28,6.10
2013,08,31,15,29,5.70
2013,08,31,15,30,8.60
2013,08,31,15,31,8.60
2013,08,31,15,32,6.80
2013,08,31,15,33,6.80
2013,08,31,15,34,7.60
2013,08,31,15,35,6.20
2013,08,31,15,36,4.40
2013,08,31,15,37,5.10
2013,08,31,15,38,4.00
2013,08,31,15,39,6.70
2013,08,31,15,40,5.00
2013,08,31,15,41,4.90
2013,08,31,15,42,5.60
2013,08,31,15,43,5.90
2013,08,31,15,44,4.80
2013,08,31,15,45,7.20
2013,08,31,15,46,5.20
2013,08,31,15,47,5.90
2013,08,31,15,48,5.80
2013,08,31,15,49,7.50
2013,08,31,15,50,3.10
2013,08,31,15,51,3.30
2013,08,31,15,52,7.00
2013,08,31,15,53,6.80
2013,08,31,15,54,6.10
2013,08,31,15,55,4.60
2013,08,31,15,56,2.40
2013,08,31,15,57,5.60
2013,08,31,15,58,2.20
2013,08,31,15,59,3.80
2013,08,31,16,00,5.60
2013,08,31,16,01,3.10
2013,08,31,16,02,5.40
2013,08,31,16,03,6.80
2013,08,31,16,04,5.30
2013,08,31,16,05,6.20
2013,08,31,16,06,5.50
2013,08,31,16,07,6.00
2013,08,31,16,08,5.40
2013,08,31,16,09,4.70
2013,08,31,16,10,5.50
2013,08,31,16,11,7.00
2013,08,31,16,12,5.20
2013,08,31,16,13,3.90
2013,08,31,16,14,5.40
2013,08,31,16,15,8.00
2013,08,31,16,16,4.40
2013,08,31,16,17,5.50
2013,08,31,16,18,5.40
2013,08,31,16,19,4.80
2013,08,31,16,20,5.70
2013,08,31,16,21,5.20
2013,08,31,16,22,5.50
2013,08,31,16,23,5.00
2013,08,31,16,24,6.40
2013,08,31,16,25,6.90
2013,08,31,16,26,4.70
2013,08,31,16,27,4.40
2013,08,31,16,28,4.10
2013,08,31,16,29,4.20
2013,08,31,16,30,3.90
2013,08,31,16,31,4.10
2013,08,31,16,32,6.00
2013,08,31,16,33,4.80
2013,08,31,16,34,5.60
2013,08,31,16,35,5.10
2013,08,31,16,36,3.50
2013,08,31,16,37,0.60
2013,08,31,16,38,3.60
2013,08,31,16,39,6.40
2013,08,31,16,40,3.10
2013,08,31,16,41,1.50
2013,08,31,16,42,3.80
2013,08,31,16,43,5.40
2013,08,31,16,44,5.00
2013,08,31,16,45,3.30
2013,08,31,16,46,2.40
2013,08,31,16,47,2.70
2013,08,31,16,48,2.30
2013,08,31,16,49,5.30
2013,08,31,16,50,5.60
2013,08,31,16,51,3.70
2013,08,31,16,52,4.30
2013,08,31,16,53,3.50
2013,08,31,16,54,3.00
2013,08,31,16,55,4.60
2013,08,31,16,56,4.00
2013,08,31,16,57,3.10
2013,08,31,16,58,3.20
2013,08,31,16,59,3.30
2013,08,31,17,00,5.30
2013,08,31,17,01,3.90
2013,08,31,17,02,0.90
2013,08,31,17,03,3.60
2013,08,31,17,04,2.20
2013,08,31,17,05,3.30
2013,08,31,17,06,1.70
2013,08,31,17,07,4.00
2013,08,31,17,08,4.30
2013,08,31,17,09,1.00
2013,08,31,17,10,4.30
2013,08,31,17,11,3.80
2013,08,31,17,12,1.10
2013,08,31,17,13,3.40
2013,08,31,17,14,3.10
2013,08,31,17,15,2.30
2013,08,31,17,16,2.80
2013,08,31,17,17,4.00
2013,08,31,17,18,2.30
2013,08,31,17,19,3.90
2013,08,31,17,20,4.30
2013,08,31,17,21,3.50
2013,08,31,17,22,4.00
2013,08,31,17,23,4.00
2013,08,31,17,24,3.50
2013,08,31,17,25,2.00
2013,08,31,17,26,0.20
2013,08,31,17,27,2.80
2013,08,31,17,28,5.10
2013,08,31,17,29,7.20
2013,08,31,17,30,3.40
2013,08,31,17,31,4.30
2013,08,31,17,32,5.40
2013,08,31,17,33,4.70
2013,08,31,17,34,4.50
2013,08,31,17,35,3.80
2013,08,31,17,36,2.00
2013,08,31,17,37,2.50
2013,08,31,17,38,4.30
2013,08,31,17,39,5.10
2013,08,31,17,40,5.80
2013,08,31,17,41,4.20
2013,08,31,17,42,5.10
2013,08,31,17,43,3.60
2013,08,31,17,44,2.30
2013,08,31,17,45,2.70
2013,08,31,17,46,4.70
2013,08,31,17,47,4.80
2013,08,31,17,48,4.90
2013,08,31,17,49,5.80
2013,08,31,17,50,4.80
2013,08,31,17,51,1.10
2013,08,31,17,52,2.10
2013,08,31,17,53,4.40
2013,08,31,17,54,4.60
2013,08,31,17,55,4.50
2013,08,31,17,56,1.90
2013,08,31,17,57,1.90
2013,08,31,17,58,3.50
2013,08,31,17,59,6.00
2013,08,31,18,00,4.70
2013,08,31,18,01,4.10
2013,08,31,18,02,4.30
2013,08,31,18,03,4.30
2013,08,31,18,04,4.70
2013,08,31,18,05,4.10
2013,08,31,18,06,4.80